This demonstration page uses our WeatherBlox Daily Observations layout. Learn more.

Left ArrowRight Arrow

31.84235, -102.49876

Hourly Observations for August 10, 2017

Temp ( °F °C ) Dew Point ( °F °C ) Humidity (%) Winds ( mph kmh ) Pressure ( in mb ) Visibility ( mi km ) Precip ( " mm )
12:53 am 00:53 Clear 81 27.2 64 17.8 57 57 S 13 20 29.98 1015 10 16 0.00 0.00
1:53 am 01:53 Clear 80 26.7 65 18.3 60 60 S 10 17 29.98 1015 10 16 0.00 0.00
2:53 am 02:53 Clear 79 26.1 64 17.8 60 60 SSE 9 15 29.97 1015 10 16 0.00 0.00
3:53 am 03:53 Clear 77 25 65 18.3 66 66 S 8 13 29.97 1015 10 16 0.00 0.00
4:53 am 04:53 Clear 76 24.4 65 18.3 69 69 S 7 11 29.97 1015 10 16 0.00 0.00
5:53 am 05:53 Clear 75 23.9 66 18.9 74 74 S 8 13 29.98 1015 10 16 0.00 0.00
6:53 am 06:53 Clear 73 22.8 66 18.9 79 79 SSE 6 9 29.99 1016 10 16 0.00 0.00
7:53 am 07:53 Sunny 75 23.9 67 19.4 76 76 undefined N/A 30.01 1016 10 16 0.00 0.00
8:53 am 08:53 Sunny 78 25.6 68 20 71 71 S 9 15 30.03 1017 10 16 0.00 0.00
9:53 am 09:53 Sunny 81 27.2 68 20 65 65 S 12 19 30.04 1017 10 16 0.00 0.00
10:53 am 10:53 Sunny 84 28.9 68 20 59 59 S 12 19 30.04 1017 10 16 0.00 0.00
11:53 am 11:53 Sunny 88 31.1 66 18.9 48 48 undefined N/A 30.03 1017 10 16 0.00 0.00
12:53 pm 12:53 Mostly Sunny 89 31.7 64 17.8 43 43 S 15 24 30.02 1017 10 16 0.00 0.00
1:53 pm 13:53 Mostly Sunny 92 33.3 63 17.2 38 38 SSE 14 22 29.99 1016 10 16 0.00 0.00
2:53 pm 14:53 Partly Cloudy 93 33.9 60 15.6 33 33 SSW 10 17 29.97 1015 10 16 0.00 0.00
3:53 pm 15:53 Mostly Sunny 93 33.9 60 15.6 33 33 SSE 8 13 29.95 1014 10 16 0.00 0.00
4:53 pm 16:53 Partly Cloudy 93 33.9 59 15 32 32 SSE 14 22 29.94 1014 10 16 0.00 0.00
5:53 pm 17:53 Mostly Sunny 93 33.9 60 15.6 33 33 S 16 26 29.93 1013 10 16 0.00 0.00
6:53 pm 18:53 Mostly Sunny 93 33.9 60 15.6 33 33 S 16 26 29.92 1013 10 16 0.00 0.00
7:53 pm 19:53 Sunny 91 32.8 60 15.6 35 35 undefined N/A 29.92 1013 10 16 0.00 0.00
8:53 pm 20:53 Clear 88 31.1 60 15.6 39 39 S 10 17 29.93 1014 10 16 0.00 0.00
9:53 pm 21:53 Clear 85 29.4 61 16.1 45 45 S 9 15 29.96 1015 10 16 0.00 0.00
10:53 pm 22:53 Clear 84 28.9 62 16.7 48 48 S 9 15 29.97 1015 10 16 0.00 0.00
11:53 pm 23:53 Clear 83 28.3 62 16.7 49 49 S 9 15 29.96 1015 10 16 0.00 0.00

Powered by AerisWeather